Location: Cantaing
(50.1487°N, 3.1675°E)
Time: 14:55:26
(UTC+00:00)

COSMOS 2406 - Pass Details

Date: 14 January 2026
Orbit: 843 x 861 km, 71.0° (Epoch: 18 February)

Event Time Altitude Azimuth Distance (km) Brightness Sun altitude
Exits shadow 06:43:59 - 329° (NNW) 3,002 5.6 -8.9°
Reaches altitude 10° 06:45:19 10° 329° (NNW) 2,496 5.2 -8.7°
Maximum altitude 06:51:03 77° 244° (WSW) 884 3.3 -7.9°
Drops below altitude 10° 06:56:46 10° 159° (SSE) 2,489 6.4 -7.1°
Sets 06:59:13 0° 158° (SSE) 3,423 7.2 -6.7°
